Year,Month,Day,Hour,Minute,Value (Times are PST for temperature in C)
2007,11,14,00,00,1.20
2007,11,14,00,01,1.20
2007,11,14,00,02,1.20
2007,11,14,00,03,1.30
2007,11,14,00,04,1.30
2007,11,14,00,05,1.30
2007,11,14,00,06,1.30
2007,11,14,00,07,1.30
2007,11,14,00,08,1.30
2007,11,14,00,09,1.30
2007,11,14,00,10,1.30
2007,11,14,00,11,1.30
2007,11,14,00,12,1.30
2007,11,14,00,13,1.20
2007,11,14,00,14,1.20
2007,11,14,00,15,1.30
2007,11,14,00,16,1.30
2007,11,14,00,17,1.30
2007,11,14,00,18,1.30
2007,11,14,00,19,1.30
2007,11,14,00,20,1.30
2007,11,14,00,21,1.30
2007,11,14,00,22,1.30
2007,11,14,00,23,1.30
2007,11,14,00,24,1.30
2007,11,14,00,25,1.30
2007,11,14,00,26,1.30
2007,11,14,00,27,1.30
2007,11,14,00,28,1.30
2007,11,14,00,29,1.30
2007,11,14,00,30,1.30
2007,11,14,00,31,1.30
2007,11,14,00,32,1.40
2007,11,14,00,33,1.40
2007,11,14,00,34,1.40
2007,11,14,00,35,1.40
2007,11,14,00,36,1.50
2007,11,14,00,37,1.50
2007,11,14,00,38,1.50
2007,11,14,00,39,1.50
2007,11,14,00,40,1.60
2007,11,14,00,41,1.60
2007,11,14,00,42,1.60
2007,11,14,00,43,1.60
2007,11,14,00,44,1.70
2007,11,14,00,45,1.70
2007,11,14,00,46,1.70
2007,11,14,00,47,1.70
2007,11,14,00,48,1.70
2007,11,14,00,49,1.70
2007,11,14,00,50,1.70
2007,11,14,00,51,1.70
2007,11,14,00,52,1.70
2007,11,14,00,53,1.70
2007,11,14,00,54,1.70
2007,11,14,00,55,1.70
2007,11,14,00,56,1.70
2007,11,14,00,57,1.80
2007,11,14,00,58,1.80
2007,11,14,00,59,1.80
2007,11,14,01,00,1.80
2007,11,14,01,01,1.80
2007,11,14,01,02,1.80
2007,11,14,01,03,1.80
2007,11,14,01,04,1.80
2007,11,14,01,05,1.80
2007,11,14,01,06,1.80
2007,11,14,01,07,1.80
2007,11,14,01,08,1.80
2007,11,14,01,09,1.90
2007,11,14,01,10,1.90
2007,11,14,01,11,1.90
2007,11,14,01,12,2.00
2007,11,14,01,13,2.00
2007,11,14,01,14,2.10
2007,11,14,01,15,2.10
2007,11,14,01,16,2.10
2007,11,14,01,17,2.10
2007,11,14,01,18,2.10
2007,11,14,01,19,2.10
2007,11,14,01,20,2.10
2007,11,14,01,21,2.10
2007,11,14,01,22,2.10
2007,11,14,01,23,2.10
2007,11,14,01,24,2.10
2007,11,14,01,25,2.10
2007,11,14,01,26,2.10
2007,11,14,01,27,2.20
2007,11,14,01,28,2.20
2007,11,14,01,29,2.20
2007,11,14,01,30,2.20
2007,11,14,01,31,2.20
2007,11,14,01,32,2.20
2007,11,14,01,33,2.20
2007,11,14,01,34,2.20
2007,11,14,01,35,2.20
2007,11,14,01,36,2.30
2007,11,14,01,37,2.30
2007,11,14,01,38,2.30
2007,11,14,01,39,2.30
2007,11,14,01,40,2.30
2007,11,14,01,41,2.30
2007,11,14,01,42,2.30
2007,11,14,01,43,2.30
2007,11,14,01,44,2.30
2007,11,14,01,45,2.30
2007,11,14,01,46,2.30
2007,11,14,01,47,2.30
2007,11,14,01,48,2.30
2007,11,14,01,49,2.40
2007,11,14,01,50,2.40
2007,11,14,01,51,2.40
2007,11,14,01,52,2.40
2007,11,14,01,53,2.40
2007,11,14,01,54,2.50
2007,11,14,01,55,2.50
2007,11,14,01,56,2.50
2007,11,14,01,57,2.50
2007,11,14,01,58,2.60
2007,11,14,01,59,2.60
2007,11,14,02,00,2.60
2007,11,14,02,01,2.60
2007,11,14,02,02,2.60
2007,11,14,02,03,2.60
2007,11,14,02,04,2.60
2007,11,14,02,05,2.60
2007,11,14,02,06,2.60
2007,11,14,02,07,2.60
2007,11,14,02,08,2.60
2007,11,14,02,09,2.60
2007,11,14,02,10,2.60
2007,11,14,02,11,2.60
2007,11,14,02,12,2.60
2007,11,14,02,13,2.60
2007,11,14,02,14,2.60
2007,11,14,02,15,2.60
2007,11,14,02,16,2.60
2007,11,14,02,17,2.60
2007,11,14,02,18,2.60
2007,11,14,02,19,2.60
2007,11,14,02,20,2.60
2007,11,14,02,21,2.60
2007,11,14,02,22,2.60
2007,11,14,02,23,2.60
2007,11,14,02,24,2.60
2007,11,14,02,25,2.60
2007,11,14,02,26,2.60
2007,11,14,02,27,2.60
2007,11,14,02,28,2.60
2007,11,14,02,29,2.60
2007,11,14,02,30,2.60
2007,11,14,02,31,2.60
2007,11,14,02,32,2.60
2007,11,14,02,33,2.60
2007,11,14,02,34,2.60
2007,11,14,02,35,2.60
2007,11,14,02,36,2.60
2007,11,14,02,37,2.60
2007,11,14,02,38,2.50
2007,11,14,02,39,2.50
2007,11,14,02,40,2.50
2007,11,14,02,41,2.50
2007,11,14,02,42,2.50
2007,11,14,02,43,2.50
2007,11,14,02,44,2.50
2007,11,14,02,45,2.50
2007,11,14,02,46,2.50
2007,11,14,02,47,2.50
2007,11,14,02,48,2.50
2007,11,14,02,49,2.50
2007,11,14,02,50,2.50
2007,11,14,02,51,2.50
2007,11,14,02,52,2.50
2007,11,14,02,53,2.50
2007,11,14,02,54,2.50
2007,11,14,02,55,2.50
2007,11,14,02,56,2.40
2007,11,14,02,57,2.50
2007,11,14,02,58,2.50
2007,11,14,02,59,2.40
2007,11,14,03,00,2.40
2007,11,14,03,01,2.40
2007,11,14,03,02,2.40
2007,11,14,03,03,2.40
2007,11,14,03,04,2.50
2007,11,14,03,05,2.50
2007,11,14,03,06,2.50
2007,11,14,03,07,2.50
2007,11,14,03,08,2.50
2007,11,14,03,09,2.50
2007,11,14,03,10,2.50
2007,11,14,03,11,2.50
2007,11,14,03,12,2.50
2007,11,14,03,13,2.50
2007,11,14,03,14,2.40
2007,11,14,03,15,2.40
2007,11,14,03,16,2.40
2007,11,14,03,17,2.40
2007,11,14,03,18,2.40
2007,11,14,03,19,2.40
2007,11,14,03,20,2.40
2007,11,14,03,21,2.40
2007,11,14,03,22,2.40
2007,11,14,03,23,2.40
2007,11,14,03,24,2.40
2007,11,14,03,25,2.40
2007,11,14,03,26,2.40
2007,11,14,03,27,2.30
2007,11,14,03,28,2.30
2007,11,14,03,29,2.30
2007,11,14,03,30,2.30
2007,11,14,03,31,2.30
2007,11,14,03,32,2.30
2007,11,14,03,33,2.20
2007,11,14,03,34,2.20
2007,11,14,03,35,2.20
2007,11,14,03,36,2.20
2007,11,14,03,37,2.10
2007,11,14,03,38,2.10
2007,11,14,03,39,2.10
2007,11,14,03,40,2.10
2007,11,14,03,41,2.10
2007,11,14,03,42,2.10
2007,11,14,03,43,2.10
2007,11,14,03,44,2.10
2007,11,14,03,45,2.10
2007,11,14,03,46,2.10
2007,11,14,03,47,2.10
2007,11,14,03,48,2.10
2007,11,14,03,49,2.10
2007,11,14,03,50,2.10
2007,11,14,03,51,2.10
2007,11,14,03,52,2.10
2007,11,14,03,53,2.20
2007,11,14,03,54,2.20
2007,11,14,03,55,2.20
2007,11,14,03,56,2.20
2007,11,14,03,57,2.20
2007,11,14,03,58,2.20
2007,11,14,03,59,2.20
2007,11,14,04,00,2.30
2007,11,14,04,01,2.30
2007,11,14,04,02,2.30
2007,11,14,04,03,2.30
2007,11,14,04,04,2.30
2007,11,14,04,05,2.30
2007,11,14,04,06,2.30
2007,11,14,04,07,2.30
2007,11,14,04,08,2.30
2007,11,14,04,09,2.30
2007,11,14,04,10,2.30
2007,11,14,04,11,2.30
2007,11,14,04,12,2.30
2007,11,14,04,13,2.30
2007,11,14,04,14,2.30
2007,11,14,04,15,2.30
2007,11,14,04,16,2.30
2007,11,14,04,17,2.30
2007,11,14,04,18,2.30
2007,11,14,04,19,2.30
2007,11,14,04,20,2.30
2007,11,14,04,21,2.30
2007,11,14,04,22,2.30
2007,11,14,04,23,2.20
2007,11,14,04,24,2.20
2007,11,14,04,25,2.20
2007,11,14,04,26,2.20
2007,11,14,04,27,2.10
2007,11,14,04,28,2.10
2007,11,14,04,29,2.10
2007,11,14,04,30,2.10
2007,11,14,04,31,2.10
2007,11,14,04,32,2.20
2007,11,14,04,33,2.20
2007,11,14,04,34,2.20
2007,11,14,04,35,2.20
2007,11,14,04,36,2.20
2007,11,14,04,37,2.20
2007,11,14,04,38,2.20
2007,11,14,04,39,2.20
2007,11,14,04,40,2.20
2007,11,14,04,41,2.20
2007,11,14,04,42,2.30
2007,11,14,04,43,2.30
2007,11,14,04,44,2.30
2007,11,14,04,45,2.30
2007,11,14,04,46,2.30
2007,11,14,04,47,2.30
2007,11,14,04,48,2.30
2007,11,14,04,49,2.30
2007,11,14,04,50,2.30
2007,11,14,04,51,2.30
2007,11,14,04,52,2.30
2007,11,14,04,53,2.30
2007,11,14,04,54,2.30
2007,11,14,04,55,2.30
2007,11,14,04,56,2.30
2007,11,14,04,57,2.30
2007,11,14,04,58,2.40
2007,11,14,04,59,2.40
2007,11,14,05,00,2.40
2007,11,14,05,01,2.40
2007,11,14,05,02,2.40
2007,11,14,05,03,2.40
2007,11,14,05,04,2.40
2007,11,14,05,05,2.40
2007,11,14,05,06,2.40
2007,11,14,05,07,2.40
2007,11,14,05,08,2.40
2007,11,14,05,09,2.40
2007,11,14,05,10,2.40
2007,11,14,05,11,2.40
2007,11,14,05,12,2.40
2007,11,14,05,13,2.40
2007,11,14,05,14,2.40
2007,11,14,05,15,2.40
2007,11,14,05,16,2.40
2007,11,14,05,17,2.40
2007,11,14,05,18,2.40
2007,11,14,05,19,2.40
2007,11,14,05,20,2.40
2007,11,14,05,21,2.40
2007,11,14,05,22,2.40
2007,11,14,05,23,2.50
2007,11,14,05,24,2.50
2007,11,14,05,25,2.50
2007,11,14,05,26,2.50
2007,11,14,05,27,2.50
2007,11,14,05,28,2.50
2007,11,14,05,29,2.50
2007,11,14,05,30,2.50
2007,11,14,05,31,2.50
2007,11,14,05,32,2.50
2007,11,14,05,33,2.50
2007,11,14,05,34,2.50
2007,11,14,05,35,2.50
2007,11,14,05,36,2.50
2007,11,14,05,37,2.50
2007,11,14,05,38,2.50
2007,11,14,05,39,2.50
2007,11,14,05,40,2.50
2007,11,14,05,41,2.50
2007,11,14,05,42,2.50
2007,11,14,05,43,2.50
2007,11,14,05,44,2.50
2007,11,14,05,45,2.50
2007,11,14,05,46,2.50
2007,11,14,05,47,2.50
2007,11,14,05,48,2.50
2007,11,14,05,49,2.50
2007,11,14,05,50,2.50
2007,11,14,05,51,2.50
2007,11,14,05,52,2.50
2007,11,14,05,53,2.50
2007,11,14,05,54,2.50
2007,11,14,05,55,2.50
2007,11,14,05,56,2.50
2007,11,14,05,57,2.50
2007,11,14,05,58,2.60
2007,11,14,05,59,2.60
2007,11,14,06,00,2.60
2007,11,14,06,01,2.60
2007,11,14,06,02,2.60
2007,11,14,06,03,2.60
2007,11,14,06,04,2.60
2007,11,14,06,05,2.60
2007,11,14,06,06,2.60
2007,11,14,06,07,2.60
2007,11,14,06,08,2.60
2007,11,14,06,09,2.60
2007,11,14,06,10,2.60
2007,11,14,06,11,2.60
2007,11,14,06,12,2.60
2007,11,14,06,13,2.60
2007,11,14,06,14,2.70
2007,11,14,06,15,2.60
2007,11,14,06,16,2.60
2007,11,14,06,17,2.60
2007,11,14,06,18,2.60
2007,11,14,06,19,2.60
2007,11,14,06,20,2.70
2007,11,14,06,21,2.70
2007,11,14,06,22,2.70
2007,11,14,06,23,2.70
2007,11,14,06,24,2.70
2007,11,14,06,25,2.70
2007,11,14,06,26,2.80
2007,11,14,06,27,2.80
2007,11,14,06,28,2.80
2007,11,14,06,29,2.80
2007,11,14,06,30,2.90
2007,11,14,06,31,3.00
2007,11,14,06,32,3.10
2007,11,14,06,33,3.30
2007,11,14,06,34,3.30
2007,11,14,06,35,3.40
2007,11,14,06,36,3.50
2007,11,14,06,37,3.60
2007,11,14,06,38,3.70
2007,11,14,06,39,3.80
2007,11,14,06,40,3.80
2007,11,14,06,41,3.80
2007,11,14,06,42,3.90
2007,11,14,06,43,3.90
2007,11,14,06,44,4.00
2007,11,14,06,45,4.10
2007,11,14,06,46,4.20
2007,11,14,06,47,4.30
2007,11,14,06,48,4.30
2007,11,14,06,49,4.40
2007,11,14,06,50,4.50
2007,11,14,06,51,4.60
2007,11,14,06,52,4.70
2007,11,14,06,53,4.80
2007,11,14,06,54,4.80
2007,11,14,06,55,4.80
2007,11,14,06,56,4.90
2007,11,14,06,57,4.90
2007,11,14,06,58,4.90
2007,11,14,06,59,4.90
2007,11,14,07,00,4.90
2007,11,14,07,01,4.90
2007,11,14,07,02,4.80
2007,11,14,07,03,4.80
2007,11,14,07,04,4.80
2007,11,14,07,05,4.80
2007,11,14,07,06,4.80
2007,11,14,07,07,4.80
2007,11,14,07,08,4.80
2007,11,14,07,09,4.80
2007,11,14,07,10,4.80
2007,11,14,07,11,4.80
2007,11,14,07,12,4.80
2007,11,14,07,13,4.70
2007,11,14,07,14,4.70
2007,11,14,07,15,4.70
2007,11,14,07,16,4.60
2007,11,14,07,17,4.60
2007,11,14,07,18,4.50
2007,11,14,07,19,4.50
2007,11,14,07,20,4.40
2007,11,14,07,21,4.40
2007,11,14,07,22,4.30
2007,11,14,07,23,4.30
2007,11,14,07,24,4.30
2007,11,14,07,25,4.30
2007,11,14,07,26,4.20
2007,11,14,07,27,4.20
2007,11,14,07,28,4.10
2007,11,14,07,29,4.10
2007,11,14,07,30,4.10
2007,11,14,07,31,4.10
2007,11,14,07,32,4.10
2007,11,14,07,33,4.10
2007,11,14,07,34,4.00
2007,11,14,07,35,4.00
2007,11,14,07,36,3.90
2007,11,14,07,37,3.90
2007,11,14,07,38,3.90
2007,11,14,07,39,3.80
2007,11,14,07,40,3.80
2007,11,14,07,41,3.80
2007,11,14,07,42,3.80
2007,11,14,07,43,3.70
2007,11,14,07,44,3.70
2007,11,14,07,45,3.70
2007,11,14,07,46,3.70
2007,11,14,07,47,3.70
2007,11,14,07,48,3.70
2007,11,14,07,49,3.60
2007,11,14,07,50,3.60
2007,11,14,07,51,3.60
2007,11,14,07,52,3.60
2007,11,14,07,53,3.60
2007,11,14,07,54,3.60
2007,11,14,07,55,3.50
2007,11,14,07,56,3.50
2007,11,14,07,57,3.50
2007,11,14,07,58,3.50
2007,11,14,07,59,3.50
2007,11,14,08,00,3.50
2007,11,14,08,01,3.50
2007,11,14,08,02,3.50
2007,11,14,08,03,3.50
2007,11,14,08,04,3.40
2007,11,14,08,05,3.40
2007,11,14,08,06,3.40
2007,11,14,08,07,3.40
2007,11,14,08,08,3.40
2007,11,14,08,09,3.50
2007,11,14,08,10,3.50
2007,11,14,08,11,3.50
2007,11,14,08,12,3.50
2007,11,14,08,13,3.50
2007,11,14,08,14,3.50
2007,11,14,08,15,3.50
2007,11,14,08,16,3.50
2007,11,14,08,17,3.50
2007,11,14,08,18,3.60
2007,11,14,08,19,3.60
2007,11,14,08,20,3.60
2007,11,14,08,21,3.60
2007,11,14,08,22,3.60
2007,11,14,08,23,3.60
2007,11,14,08,24,3.60
2007,11,14,08,25,3.60
2007,11,14,08,26,3.60
2007,11,14,08,27,3.60
2007,11,14,08,28,3.60
2007,11,14,08,29,3.60
2007,11,14,08,30,3.60
2007,11,14,08,31,3.60
2007,11,14,08,32,3.60
2007,11,14,08,33,3.60
2007,11,14,08,34,3.60
2007,11,14,08,35,3.60
2007,11,14,08,36,3.60
2007,11,14,08,37,3.70
2007,11,14,08,38,3.70
2007,11,14,08,39,3.70
2007,11,14,08,40,3.70
2007,11,14,08,41,3.70
2007,11,14,08,42,3.70
2007,11,14,08,43,3.70
2007,11,14,08,44,3.70
2007,11,14,08,45,3.70
2007,11,14,08,46,3.70
2007,11,14,08,47,3.70
2007,11,14,08,48,3.70
2007,11,14,08,49,3.70
2007,11,14,08,50,3.70
2007,11,14,08,51,3.70
2007,11,14,08,52,3.80
2007,11,14,08,53,3.80
2007,11,14,08,54,3.80
2007,11,14,08,55,3.80
2007,11,14,08,56,3.80
2007,11,14,08,57,3.80
2007,11,14,08,58,3.90
2007,11,14,08,59,3.90
2007,11,14,09,00,3.90
2007,11,14,09,01,3.90
2007,11,14,09,02,3.90
2007,11,14,09,03,3.90
2007,11,14,09,04,3.90
2007,11,14,09,05,3.90
2007,11,14,09,06,3.90
2007,11,14,09,07,3.90
2007,11,14,09,08,3.90
2007,11,14,09,09,3.90
2007,11,14,09,10,3.90
2007,11,14,09,11,3.90
2007,11,14,09,12,3.90
2007,11,14,09,13,4.00
2007,11,14,09,14,4.00
2007,11,14,09,15,4.00
2007,11,14,09,16,4.00
2007,11,14,09,17,4.00
2007,11,14,09,18,4.00
2007,11,14,09,19,4.00
2007,11,14,09,20,4.00
2007,11,14,09,21,4.00
2007,11,14,09,22,4.00
2007,11,14,09,23,4.10
2007,11,14,09,24,4.10
2007,11,14,09,25,4.10
2007,11,14,09,26,4.10
2007,11,14,09,27,4.10
2007,11,14,09,28,4.10
2007,11,14,09,29,4.10
2007,11,14,09,30,4.20
2007,11,14,09,31,4.20
2007,11,14,09,32,4.20
2007,11,14,09,33,4.20
2007,11,14,09,34,4.20
2007,11,14,09,35,4.30
2007,11,14,09,36,4.30
2007,11,14,09,37,4.30
2007,11,14,09,38,4.30
2007,11,14,09,39,4.30
2007,11,14,09,40,4.30
2007,11,14,09,41,4.40
2007,11,14,09,42,4.40
2007,11,14,09,43,4.40
2007,11,14,09,44,4.50
2007,11,14,09,45,4.50
2007,11,14,09,46,4.50
2007,11,14,09,47,4.50
2007,11,14,09,48,4.60
2007,11,14,09,49,4.60
2007,11,14,09,50,4.60
2007,11,14,09,51,4.60
2007,11,14,09,52,4.70
2007,11,14,09,53,4.70
2007,11,14,09,54,4.70
2007,11,14,09,55,4.70
2007,11,14,09,56,4.70
2007,11,14,09,57,4.70
2007,11,14,09,58,4.70
2007,11,14,09,59,4.80
2007,11,14,10,00,4.80
2007,11,14,10,01,4.80
2007,11,14,10,02,4.80
2007,11,14,10,03,4.80
2007,11,14,10,04,4.90
2007,11,14,10,05,4.90
2007,11,14,10,06,4.90
2007,11,14,10,07,4.90
2007,11,14,10,08,4.90
2007,11,14,10,09,4.90
2007,11,14,10,10,4.90
2007,11,14,10,11,4.90
2007,11,14,10,12,4.90
2007,11,14,10,13,4.90
2007,11,14,10,14,4.90
2007,11,14,10,15,4.90
2007,11,14,10,16,4.90
2007,11,14,10,17,4.90
2007,11,14,10,18,4.90
2007,11,14,10,19,4.90
2007,11,14,10,20,5.00
2007,11,14,10,21,5.00
2007,11,14,10,22,5.00
2007,11,14,10,23,5.00
2007,11,14,10,24,5.00
2007,11,14,10,25,5.10
2007,11,14,10,26,5.10
2007,11,14,10,27,5.10
2007,11,14,10,28,5.10
2007,11,14,10,29,5.20
2007,11,14,10,30,5.20
2007,11,14,10,31,5.20
2007,11,14,10,32,5.20
2007,11,14,10,33,5.20
2007,11,14,10,34,5.20
2007,11,14,10,35,5.20
2007,11,14,10,36,5.20
2007,11,14,10,37,5.20
2007,11,14,10,38,5.20
2007,11,14,10,39,5.30
2007,11,14,10,40,5.30
2007,11,14,10,41,5.30
2007,11,14,10,42,5.30
2007,11,14,10,43,5.30
2007,11,14,10,44,5.30
2007,11,14,10,45,5.30
2007,11,14,10,46,5.30
2007,11,14,10,47,5.30
2007,11,14,10,48,5.30
2007,11,14,10,49,5.30
2007,11,14,10,50,5.30
2007,11,14,10,51,5.30
2007,11,14,10,52,5.30
2007,11,14,10,53,5.30
2007,11,14,10,54,5.40
2007,11,14,10,55,5.40
2007,11,14,10,56,5.40
2007,11,14,10,57,5.40
2007,11,14,10,58,5.40
2007,11,14,10,59,5.40
2007,11,14,11,00,5.40
2007,11,14,11,01,5.40
2007,11,14,11,02,5.50
2007,11,14,11,03,5.50
2007,11,14,11,04,5.60
2007,11,14,11,05,5.60
2007,11,14,11,06,5.60
2007,11,14,11,07,5.70
2007,11,14,11,08,5.70
2007,11,14,11,09,5.70
2007,11,14,11,10,5.70
2007,11,14,11,11,5.80
2007,11,14,11,12,5.80
2007,11,14,11,13,5.80
2007,11,14,11,14,5.80
2007,11,14,11,15,5.80
2007,11,14,11,16,5.80
2007,11,14,11,17,5.80
2007,11,14,11,18,5.80
2007,11,14,11,19,5.80
2007,11,14,11,20,5.80
2007,11,14,11,21,5.80
2007,11,14,11,22,5.80
2007,11,14,11,23,5.80
2007,11,14,11,24,5.80
2007,11,14,11,25,5.80
2007,11,14,11,26,5.80
2007,11,14,11,27,5.90
2007,11,14,11,28,5.80
2007,11,14,11,29,5.80
2007,11,14,11,30,5.80
2007,11,14,11,31,5.90
2007,11,14,11,32,5.90
2007,11,14,11,33,5.90
2007,11,14,11,34,5.90
2007,11,14,11,35,5.90
2007,11,14,11,36,5.90
2007,11,14,11,37,5.90
2007,11,14,11,38,6.00
2007,11,14,11,39,6.00
2007,11,14,11,40,6.00
2007,11,14,11,41,6.00
2007,11,14,11,42,5.90
2007,11,14,11,43,5.90
2007,11,14,11,44,5.90
2007,11,14,11,45,5.90
2007,11,14,11,46,5.90
2007,11,14,11,47,5.90
2007,11,14,11,48,5.90
2007,11,14,11,49,5.90
2007,11,14,11,50,5.90
2007,11,14,11,51,5.90
2007,11,14,11,52,6.00
2007,11,14,11,53,6.00
2007,11,14,11,54,6.00
2007,11,14,11,55,6.10
2007,11,14,11,56,6.10
2007,11,14,11,57,6.10
2007,11,14,11,58,6.10
2007,11,14,11,59,6.10
2007,11,14,12,00,6.20
2007,11,14,12,01,6.20
2007,11,14,12,02,6.20
2007,11,14,12,03,6.20
2007,11,14,12,04,6.20
2007,11,14,12,05,6.20
2007,11,14,12,06,6.20
2007,11,14,12,07,6.20
2007,11,14,12,08,6.30
2007,11,14,12,09,6.30
2007,11,14,12,10,6.30
2007,11,14,12,11,6.30
2007,11,14,12,12,6.30
2007,11,14,12,13,6.30
2007,11,14,12,14,6.30
2007,11,14,12,15,6.40
2007,11,14,12,16,6.40
2007,11,14,12,17,6.40
2007,11,14,12,18,6.40
2007,11,14,12,19,6.40
2007,11,14,12,20,6.40
2007,11,14,12,21,6.40
2007,11,14,12,22,6.50
2007,11,14,12,23,6.50
2007,11,14,12,24,6.50
2007,11,14,12,25,6.50
2007,11,14,12,26,6.60
2007,11,14,12,27,6.60
2007,11,14,12,28,6.60
2007,11,14,12,29,6.60
2007,11,14,12,30,6.60
2007,11,14,12,31,6.60
2007,11,14,12,32,6.60
2007,11,14,12,33,6.60
2007,11,14,12,34,6.60
2007,11,14,12,35,6.70
2007,11,14,12,36,6.70
2007,11,14,12,37,6.70
2007,11,14,12,38,6.70
2007,11,14,12,39,6.70
2007,11,14,12,40,6.70
2007,11,14,12,41,6.70
2007,11,14,12,42,6.80
2007,11,14,12,43,6.80
2007,11,14,12,44,6.80
2007,11,14,12,45,6.80
2007,11,14,12,46,6.80
2007,11,14,12,47,6.90
2007,11,14,12,48,6.90
2007,11,14,12,49,6.90
2007,11,14,12,50,6.90
2007,11,14,12,51,7.00
2007,11,14,12,52,7.00
2007,11,14,12,53,7.00
2007,11,14,12,54,7.10
2007,11,14,12,55,7.10
2007,11,14,12,56,7.10
2007,11,14,12,57,7.10
2007,11,14,12,58,7.20
2007,11,14,12,59,7.20
2007,11,14,13,00,7.10
2007,11,14,13,01,7.10
2007,11,14,13,02,7.10
2007,11,14,13,03,7.10
2007,11,14,13,04,7.10
2007,11,14,13,05,7.10
2007,11,14,13,06,7.20
2007,11,14,13,07,7.20
2007,11,14,13,08,7.20
2007,11,14,13,09,7.10
2007,11,14,13,10,7.10
2007,11,14,13,11,7.20
2007,11,14,13,12,7.20
2007,11,14,13,13,7.20
2007,11,14,13,14,7.20
2007,11,14,13,15,7.20
2007,11,14,13,16,7.20
2007,11,14,13,17,7.20
2007,11,14,13,18,7.20
2007,11,14,13,19,7.20
2007,11,14,13,20,7.20
2007,11,14,13,21,7.20
2007,11,14,13,22,7.20
2007,11,14,13,23,7.20
2007,11,14,13,24,7.20
2007,11,14,13,25,7.10
2007,11,14,13,26,7.10
2007,11,14,13,27,7.00
2007,11,14,13,28,7.00
2007,11,14,13,29,7.00
2007,11,14,13,30,7.00
2007,11,14,13,31,7.00
2007,11,14,13,32,7.00
2007,11,14,13,33,7.00
2007,11,14,13,34,7.00
2007,11,14,13,35,7.00
2007,11,14,13,36,7.00
2007,11,14,13,37,7.10
2007,11,14,13,38,7.10
2007,11,14,13,39,7.10
2007,11,14,13,40,7.10
2007,11,14,13,41,7.10
2007,11,14,13,42,7.10
2007,11,14,13,43,7.10
2007,11,14,13,44,7.10
2007,11,14,13,45,7.10
2007,11,14,13,46,7.10
2007,11,14,13,47,7.10
2007,11,14,13,48,7.10
2007,11,14,13,49,7.10
2007,11,14,13,50,7.10
2007,11,14,13,51,7.00
2007,11,14,13,52,7.10
2007,11,14,13,53,7.10
2007,11,14,13,54,7.10
2007,11,14,13,55,7.10
2007,11,14,13,56,7.10
2007,11,14,13,57,7.10
2007,11,14,13,58,7.10
2007,11,14,13,59,7.10
2007,11,14,14,00,7.10
2007,11,14,14,01,7.10
2007,11,14,14,02,7.20
2007,11,14,14,03,7.20
2007,11,14,14,04,7.20
2007,11,14,14,05,7.20
2007,11,14,14,06,7.20
2007,11,14,14,07,7.20
2007,11,14,14,08,7.20
2007,11,14,14,09,7.20
2007,11,14,14,10,7.20
2007,11,14,14,11,7.20
2007,11,14,14,12,7.20
2007,11,14,14,13,7.20
2007,11,14,14,14,7.20
2007,11,14,14,15,7.20
2007,11,14,14,16,7.20
2007,11,14,14,17,7.20
2007,11,14,14,18,7.10
2007,11,14,14,19,7.00
2007,11,14,14,20,7.00
2007,11,14,14,21,6.90
2007,11,14,14,22,6.90
2007,11,14,14,23,6.90
2007,11,14,14,24,6.90
2007,11,14,14,25,6.90
2007,11,14,14,26,6.80
2007,11,14,14,27,6.80
2007,11,14,14,28,6.80
2007,11,14,14,29,6.80
2007,11,14,14,30,6.70
2007,11,14,14,31,6.70
2007,11,14,14,32,6.70
2007,11,14,14,33,6.70
2007,11,14,14,34,6.70
2007,11,14,14,35,6.60
2007,11,14,14,36,6.60
2007,11,14,14,37,6.60
2007,11,14,14,38,6.60
2007,11,14,14,39,6.60
2007,11,14,14,40,6.60
2007,11,14,14,41,6.60
2007,11,14,14,42,6.60
2007,11,14,14,43,6.60
2007,11,14,14,44,6.50
2007,11,14,14,45,6.50
2007,11,14,14,46,6.50
2007,11,14,14,47,6.50
2007,11,14,14,48,6.40
2007,11,14,14,49,6.40
2007,11,14,14,50,6.40
2007,11,14,14,51,6.40
2007,11,14,14,52,6.30
2007,11,14,14,53,6.30
2007,11,14,14,54,6.30
2007,11,14,14,55,6.30
2007,11,14,14,56,6.30
2007,11,14,14,57,6.30
2007,11,14,14,58,6.30
2007,11,14,14,59,6.30
2007,11,14,15,00,6.30
2007,11,14,15,01,6.30
2007,11,14,15,02,6.30
2007,11,14,15,03,6.30
2007,11,14,15,04,6.30
2007,11,14,15,05,6.30
2007,11,14,15,06,6.30
2007,11,14,15,07,6.30
2007,11,14,15,08,6.30
2007,11,14,15,09,6.30
2007,11,14,15,10,6.30
2007,11,14,15,11,6.30
2007,11,14,15,12,6.30
2007,11,14,15,13,6.30
2007,11,14,15,14,6.30
2007,11,14,15,15,6.30
2007,11,14,15,16,6.30
2007,11,14,15,17,6.30
2007,11,14,15,18,6.40
2007,11,14,15,19,6.40
2007,11,14,15,20,6.40
2007,11,14,15,21,6.40
2007,11,14,15,22,6.40
2007,11,14,15,23,6.40
2007,11,14,15,24,6.40
2007,11,14,15,25,6.40
2007,11,14,15,26,6.40
2007,11,14,15,27,6.40
2007,11,14,15,28,6.40
2007,11,14,15,29,6.40
2007,11,14,15,30,6.40
2007,11,14,15,31,6.40
2007,11,14,15,32,6.40
2007,11,14,15,33,6.30
2007,11,14,15,34,6.30
2007,11,14,15,35,6.30
2007,11,14,15,36,6.30
2007,11,14,15,37,6.30
2007,11,14,15,38,6.30
2007,11,14,15,39,6.30
2007,11,14,15,40,6.20
2007,11,14,15,41,6.20
2007,11,14,15,42,6.20
2007,11,14,15,43,6.20
2007,11,14,15,44,6.10
2007,11,14,15,45,6.10
2007,11,14,15,46,6.10
2007,11,14,15,47,6.10
2007,11,14,15,48,6.10
2007,11,14,15,49,6.10
2007,11,14,15,50,6.00
2007,11,14,15,51,6.00
2007,11,14,15,52,6.00
2007,11,14,15,53,6.00
2007,11,14,15,54,6.00
2007,11,14,15,55,6.00
2007,11,14,15,56,6.00
2007,11,14,15,57,6.00
2007,11,14,15,58,6.00
2007,11,14,15,59,6.00
2007,11,14,16,00,6.00
2007,11,14,16,01,6.00
2007,11,14,16,02,5.90
2007,11,14,16,03,5.90
2007,11,14,16,04,5.90
2007,11,14,16,05,5.90
2007,11,14,16,06,5.90
2007,11,14,16,07,5.90
2007,11,14,16,08,5.90
2007,11,14,16,09,5.90
2007,11,14,16,10,5.90
2007,11,14,16,11,5.90
2007,11,14,16,12,5.90
2007,11,14,16,13,5.80
2007,11,14,16,14,5.80
2007,11,14,16,15,5.80
2007,11,14,16,16,5.80
2007,11,14,16,17,5.80
2007,11,14,16,18,5.80
2007,11,14,16,19,5.80
2007,11,14,16,20,5.80
2007,11,14,16,21,5.80
2007,11,14,16,22,5.80
2007,11,14,16,23,5.80
2007,11,14,16,24,5.80
2007,11,14,16,25,5.80
2007,11,14,16,26,5.80
2007,11,14,16,27,5.80
2007,11,14,16,28,5.80
2007,11,14,16,29,5.80
2007,11,14,16,30,5.80
2007,11,14,16,31,5.80
2007,11,14,16,32,5.80
2007,11,14,16,33,5.80
2007,11,14,16,34,5.80
2007,11,14,16,35,5.80
2007,11,14,16,36,5.80
2007,11,14,16,37,5.80
2007,11,14,16,38,5.80
2007,11,14,16,39,5.80
2007,11,14,16,40,5.80
2007,11,14,16,41,5.80
2007,11,14,16,42,5.80
2007,11,14,16,43,5.80
2007,11,14,16,44,5.80
2007,11,14,16,45,5.80
2007,11,14,16,46,5.80
2007,11,14,16,47,5.80
2007,11,14,16,48,5.80
2007,11,14,16,49,5.70
2007,11,14,16,50,5.70
2007,11,14,16,51,5.70
2007,11,14,16,52,5.70
2007,11,14,16,53,5.70
2007,11,14,16,54,5.70
2007,11,14,16,55,5.70
2007,11,14,16,56,5.70
2007,11,14,16,57,5.70
2007,11,14,16,58,5.70
2007,11,14,16,59,5.60
2007,11,14,17,00,5.60
2007,11,14,17,01,5.60
2007,11,14,17,02,5.60
2007,11,14,17,03,5.60
2007,11,14,17,04,5.60
2007,11,14,17,05,5.60
2007,11,14,17,06,5.50
2007,11,14,17,07,5.50
2007,11,14,17,08,5.50
2007,11,14,17,09,5.50
2007,11,14,17,10,5.50
2007,11,14,17,11,5.50
2007,11,14,17,12,5.50
2007,11,14,17,13,5.50
2007,11,14,17,14,5.50
2007,11,14,17,15,5.50
2007,11,14,17,16,5.50
2007,11,14,17,17,5.50
2007,11,14,17,18,5.60
2007,11,14,17,19,5.60
2007,11,14,17,20,5.60
2007,11,14,17,21,5.60
2007,11,14,17,22,5.60
2007,11,14,17,23,5.60
2007,11,14,17,24,5.60
2007,11,14,17,25,5.60
2007,11,14,17,26,5.60
2007,11,14,17,27,5.60
2007,11,14,17,28,5.50
2007,11,14,17,29,5.50
2007,11,14,17,30,5.50
2007,11,14,17,31,5.50
2007,11,14,17,32,5.40
2007,11,14,17,33,5.40
2007,11,14,17,34,5.30
2007,11,14,17,35,5.30
2007,11,14,17,36,5.20
2007,11,14,17,37,5.20
2007,11,14,17,38,5.20
2007,11,14,17,39,5.20
2007,11,14,17,40,5.10
2007,11,14,17,41,5.00
2007,11,14,17,42,5.00
2007,11,14,17,43,4.90
2007,11,14,17,44,4.90
2007,11,14,17,45,4.90
2007,11,14,17,46,4.90
2007,11,14,17,47,4.90
2007,11,14,17,48,4.90
2007,11,14,17,49,4.90
2007,11,14,17,50,4.80
2007,11,14,17,51,4.80
2007,11,14,17,52,4.80
2007,11,14,17,53,4.80
2007,11,14,17,54,4.80
2007,11,14,17,55,4.80
2007,11,14,17,56,4.80
2007,11,14,17,57,4.70
2007,11,14,17,58,4.80
2007,11,14,17,59,4.70
2007,11,14,18,00,4.80
2007,11,14,18,01,4.70
2007,11,14,18,02,4.70
2007,11,14,18,03,4.70
2007,11,14,18,04,4.70
2007,11,14,18,05,4.70
2007,11,14,18,06,4.70